Location: Peach Mountain Observatory
(42.3967°N, 83.9367°W)
Time: 01:42:10
(UTC-05:00)

Vanguard 1 Rocket - Pass Details

Date: 24 January 2020
Orbit: 650 x 4226 km, 34.3° (Epoch: 27 February)

Event Time Altitude Azimuth Distance (km) Brightness Sun altitude
Rises 17:47:42 0° 279° (W) 6,866 13.0 -2.3°
Reaches altitude 10° 17:53:07 10° 267° (W) 6,334 13.1 -3.2°
Maximum altitude 18:08:36 25° 222° (SW) 6,010 12.5 -5.9°
Drops below altitude 10° 18:26:47 10° 177° (S) 7,334 12.2 -9.0°
Sets 18:34:08 0° 166° (SSE) 8,108 12.3 -10.3°
